Location: Blackrock Ranger Station
(36.0936°N, 118.2611°W)
Time: 01:40:12
(UTC-08:00)

MOZHAYETS 4 - Visible Passes

Search period start: 07 February 2026 00:00
Search period end: 17 February 2026 00:00
Orbit: 643 x 659 km, 98.3° (Epoch: 7 February)

Date Brightness Start Highest point End Pass type
(mag) Time Alt. Az. Time Alt. Az. Time Alt. Az.
7 Feb 10.3 03:46:31 10° ESE 03:49:24 17° ENE 03:50:18 16° NE visible
7 Feb 8.0 05:21:34 10° SSW 05:25:43 39° W 05:28:08 22° NW visible
7 Feb 10.6 18:53:50 10° NNW 18:56:20 15° WNW 18:58:49 10° W visible
8 Feb 9.3 04:12:01 10° SE 04:15:57 32° ENE 04:17:50 23° NNE visible
8 Feb 8.9 05:49:24 10° SW 05:52:40 20° W 05:55:40 11° NW visible
9 Feb 8.0 04:38:13 10° SSE 04:42:37 64° ENE 04:45:27 22° N visible
9 Feb 9.1 18:09:21 10° N 18:13:35 41° WNW 18:17:49 10° SW visible
10 Feb 10.7 03:31:56 10° E 03:33:17 11° ENE 03:34:39 10° NE visible
10 Feb 7.6 05:04:58 10° S 05:09:23 62° WSW 05:13:11 14° NNW visible
10 Feb 10.2 18:36:44 10° NNW 18:40:11 22° WNW 18:43:37 10° WSW visible
11 Feb 10.0 03:56:24 10° ESE 03:59:46 21° ENE 04:03:10 10° NNE visible
11 Feb 8.4 05:32:19 10° SSW 05:36:14 30° W 05:40:12 10° NW visible
11 Feb 10.8 19:05:10 10° NW 19:06:41 12° WNW 19:08:11 10° W visible
12 Feb 8.8 04:22:11 10° SE 04:26:21 41° ENE 04:30:34 10° N visible
12 Feb 9.2 06:00:32 10° SW 06:03:11 15° W 06:05:51 10° WNW visible
12 Feb 8.2 17:52:50 10° N 17:57:19 65° WNW 18:01:47 10° SSW visible
13 Feb 7.6 04:48:35 10° SSE 04:53:03 84° ENE 04:57:33 10° N visible
13 Feb 9.6 18:19:57 10° N 18:23:58 32° WNW 18:27:59 10° SW visible
14 Feb 10.5 03:41:11 10° E 03:43:36 14° ENE 03:46:01 10° NNE visible
14 Feb 7.8 05:15:32 10° S 05:19:50 47° W 05:24:11 10° NNW visible
14 Feb 10.5 18:47:34 10° NNW 18:50:31 17° WNW 18:53:28 10° WSW visible
15 Feb 9.6 04:06:21 10° SE 04:10:06 27° ENE 04:13:53 10° NNE visible
15 Feb 8.7 05:43:06 10° SSW 05:46:42 24° W 05:50:20 10° NW visible
16 Feb 8.4 04:32:23 10° SSE 04:36:43 53° ENE 04:41:06 10° N visible
16 Feb 9.5 06:12:00 10° WSW 06:13:40 12° W 06:15:22 10° WNW visible
16 Feb 8.7 18:03:19 10° N 18:07:41 50° WNW 18:12:02 10° SSW visible
